Weather History for Mosinee, WI

Change the Weather History Date:

Saturday, November 30, 2013

  Actual Average Record
Temperature  
Mean Temperature 32 °F -  
Max Temperature 37 °F 33 °F 60 °F (1998)
Min Temperature 26 °F 19 °F 1 °F (2007)
Degree Days  
Heating Degree Days 34    
Moisture  
Dew Point 24 °F    
Average Humidity 81    
Maximum Humidity 93    
Minimum Humidity 65    
Precipitation  
Precipitation 0.00 in - - ()
Sea Level Pressure  
Sea Level Pressure 30.10 in    
Wind  
Wind Speed 7 mph (SSW)    
Max Wind Speed 10 mph    
Max Gust Speed -    
Visibility 9 miles    
Events      
Averages and records for this station are not official NWS values.
T = Trace of Precipitation, MM = Missing Value Source: NWS Daily Summary

Daily Weather History Graph

Daily Weather History Graph

Search for Another Location

Airport:

Trip Planner

Search our weather history database for the weather conditions in past years. The results will help you decide how hot, cold, wet, or windy it might be!

Date:

Astronomy

Nov. 30, 2013 Rise Set
Actual Time 7:15 AM CST 4:19 PM CST
Civil Twilight 6:42 AM CST 4:52 PM CST
Nautical Twilight 6:05 AM CST 5:28 PM CST
Astronomical Twilight 5:30 AM CST 6:04 PM CST
Moon 4:20 AM CST (11/30) 2:48 PM CST (11/30)
Length of Visible Light 10h 10m
Length of Day
9h 04m
Waning Crescent, 7% of the Moon is Illuminated
Nov 30
Waning Crescent
Dec 2
New
Dec 9
First Quarter
Dec 17
Full
Dec 25
Last Quarter

Hourly Weather History & Observations

Time (CST) Temp. Windchill Dew Point Humidity Pressure Visibility Wind Dir Wind Speed Gust Speed Precip Events Conditions
12:15 AM 26.6 °F 16.8 °F 19.4 °F 74% 30.24 in 10.0 mi South 10.4 mph - N/A   Overcast
12:35 AM 26.6 °F 16.8 °F 21.2 °F 80% 30.23 in 10.0 mi South 10.4 mph - N/A   Overcast
12:55 AM 26.6 °F 17.5 °F 21.2 °F 80% 30.23 in 10.0 mi South 9.2 mph - N/A   Overcast
1:15 AM 26.6 °F 18.2 °F 21.2 °F 80% 30.22 in 7.0 mi SSE 8.1 mph - N/A   Overcast
1:35 AM 26.6 °F 19.1 °F 21.2 °F 80% 30.22 in 10.0 mi SSE 6.9 mph - N/A   Overcast
1:55 AM 26.6 °F 20.0 °F 21.2 °F 80% 30.21 in 10.0 mi SSE 5.8 mph - N/A   Overcast
2:15 AM 26.6 °F 18.2 °F 21.2 °F 80% 30.20 in 10.0 mi SE 8.1 mph - N/A   Overcast
2:35 AM 26.6 °F 18.2 °F 21.2 °F 80% 30.19 in 10.0 mi SSE 8.1 mph - N/A   Overcast
2:55 AM 26.6 °F 18.2 °F 21.2 °F 80% 30.17 in 10.0 mi SSE 8.1 mph - N/A   Overcast
3:15 AM 26.6 °F 18.2 °F 21.2 °F 80% 30.16 in 10.0 mi South 8.1 mph - N/A   Overcast
3:35 AM 26.6 °F 16.8 °F 21.2 °F 80% 30.15 in 10.0 mi SSE 10.4 mph - N/A   Overcast
3:55 AM 26.6 °F 17.5 °F 21.2 °F 80% 30.14 in 10.0 mi SSE 9.2 mph - N/A   Overcast
4:15 AM 26.6 °F 18.2 °F 21.2 °F 80% 30.12 in 10.0 mi SSE 8.1 mph - N/A   Overcast
4:35 AM 28.4 °F 19.1 °F 23.0 °F 80% 30.12 in 10.0 mi SSE 10.4 mph - N/A   Overcast
5:45 AM 26.6 °F 17.5 °F 23.0 °F 86% 30.10 in 10.0 mi South 9.2 mph - N/A   Overcast
6:45 AM 26.6 °F 19.1 °F 23.0 °F 86% 30.08 in 10.0 mi South 6.9 mph - N/A   Clear
7:45 AM 26.6 °F 20.0 °F 23.0 °F 86% 30.08 in 10.0 mi South 5.8 mph - N/A   Clear
8:45 AM 28.4 °F 21.2 °F 24.8 °F 86% 30.07 in 10.0 mi South 6.9 mph - N/A   Clear
9:50 AM 30.2 °F 23.4 °F 24.8 °F 80% 30.06 in 10.0 mi South 6.9 mph - N/A   Clear
10:45 AM 32.0 °F 25.6 °F 26.6 °F 80% 30.05 in 10.0 mi SW 6.9 mph - N/A   Clear
11:45 AM 33.8 °F 29.6 °F 26.6 °F 75% 30.02 in 10.0 mi SW 4.6 mph - N/A   Clear
12:45 PM 35.6 °F 29.2 °F 26.6 °F 70% 30.01 in 10.0 mi SW 8.1 mph - N/A   Clear
1:45 PM 37.4 °F 31.4 °F 26.6 °F 65% 30.00 in 10.0 mi SW 8.1 mph - N/A   Clear
2:45 PM 35.6 °F 29.2 °F 26.6 °F 70% 30.00 in 10.0 mi West 8.1 mph - N/A   Clear
3:50 PM 33.8 °F 30.8 °F 26.6 °F 75% 30.00 in 7.0 mi West 3.5 mph - N/A   Scattered Clouds
4:50 PM 33.8 °F 30.8 °F 26.6 °F 75% 30.01 in 7.0 mi West 3.5 mph - N/A   Overcast
5:45 PM 32.0 °F 28.7 °F 26.6 °F 80% 30.03 in 7.0 mi NW 3.5 mph - N/A   Overcast
6:45 PM 32.0 °F - 26.6 °F 80% 30.05 in 7.0 mi Calm Calm - N/A   Overcast
7:55 PM 32.0 °F 27.5 °F 26.6 °F 80% 30.05 in 7.0 mi WNW 4.6 mph - N/A   Overcast
8:45 PM 30.2 °F 26.7 °F 26.6 °F 86% 30.05 in 7.0 mi NW 3.5 mph - N/A   Clear
9:15 PM 32.0 °F 26.4 °F 28.4 °F 87% 30.05 in 7.0 mi NNW 5.8 mph - N/A   Clear
9:35 PM 32.0 °F 26.4 °F 28.4 °F 87% 30.05 in 7.0 mi NNW 5.8 mph - N/A   Clear
9:50 PM 30.2 °F 25.4 °F 26.6 °F 86% 30.06 in 7.0 mi NNW 4.6 mph - N/A   Clear
9:55 PM 30.2 °F 26.7 °F 26.6 °F 86% 30.06 in 7.0 mi NNW 3.5 mph - N/A   Clear
10:15 PM 30.2 °F 25.4 °F 26.6 °F 86% 30.05 in 7.0 mi North 4.6 mph - N/A   Clear
10:35 PM 30.2 °F 26.7 °F 26.6 °F 86% 30.06 in 7.0 mi NNW 3.5 mph - N/A   Clear
10:55 PM 30.2 °F 26.7 °F 26.6 °F 86% 30.06 in 7.0 mi North 3.5 mph - N/A   Clear
11:15 PM 30.2 °F 26.7 °F 26.6 °F 86% 30.07 in 7.0 mi NNW 3.5 mph - N/A   Clear
11:35 PM 30.2 °F 26.7 °F 26.6 °F 86% 30.07 in 7.0 mi North 3.5 mph - N/A   Clear
11:55 PM 28.4 °F 24.6 °F 26.6 °F 93% 30.07 in 7.0 mi North 3.5 mph - N/A   Clear